Content
SEND FEEDBACK

Daily
Averages
Monthly
Summary
United States of America

PLACERVILLE, CALIFORNIA


Home > North America > United States > California
Elevation: 2590 feet     Latitude: 38 43N     Longitude: 120 45W

WEATHER
 
SELECT A DAY
Number of Records: 94,647;   Date Range: 7/10/09 - 9/1/14
 
SHARE

PRINT THIS DATA

[ ← Previous Day ]
WEATHER ALMANAC - FEBRUARY 11, 2013
[ Next Day → ]
[ °C ]   °F
Weather ElementAverageHighLow
Temperature43.8 °F50 °F (11:35 am)35.6 °F (7:15 am)
Dewpoint20.4 °F32 °F (3:55 pm)8.6 °F (5:35 am)
Humidity41 %65 % (9:55 pm)23 % (9:55 am)
Barometer30.14 in30.23 in (11:35 pm)30.05 in (12:35 am)
Wind Speed4.8 mph12.7 mph (12:35 am)
Weather ElementAverage
Visibility10 mi
Wind DirectionESE (125.4 °)

Weather ElementTotal
Precipitation---
Heating Degree Days22.2 (Base 65)
Averaged from 69 records on February 11, 2013
WEATHER CONDITIONS BREAKOUT
WIND DIRECTION BREAKOUT
WEATHER BY HOUR - FEBRUARY 11, 2013
[ °C ]   °F
Local TimeTemperatureDewpointHumidityBarometerVisibilityWind DirectionWind SpeedGust SpeedPrecipitationEventsConditions
12:35 AM41.0 °F14.0 °F33 %30.05 in10.0 miENE (60°)12.7 mphClear
12:55 AM41.0 °F14.0 °F33 %30.05 in10.0 miENE (70°)11.5 mphClear
1:15 AM41.0 °F12.2 °F31 %30.05 in10.0 miENE (60°)12.7 mphClear
1:35 AM41.0 °F12.2 °F31 %30.06 in10.0 miNE (50°)10.4 mphClear
1:55 AM41.0 °F10.4 °F29 %30.07 in10.0 miNE (50°)9.2 mphClear
2:15 AM39.2 °F12.2 °F33 %30.06 in10.0 miENE (60°)10.4 mphClear
2:35 AM39.2 °F10.4 °F31 %30.06 in10.0 miEast (80°)10.4 mphClear
2:55 AM39.2 °F10.4 °F31 %30.06 in10.0 miEast (90°)10.4 mphClear
3:15 AM39.2 °F10.4 °F31 %30.06 in10.0 miEast (90°)9.2 mphClear
3:35 AM39.2 °F10.4 °F31 %30.05 in10.0 miEast (90°)9.2 mphClear
3:55 AM39.2 °F10.4 °F31 %30.06 in10.0 miEast (80°)6.9 mphClear
4:15 AM39.2 °F10.4 °F31 %30.06 in10.0 miENE (70°)6.9 mphClear
4:35 AM39.2 °F10.4 °F31 %30.07 in10.0 miCalmClear
4:55 AM39.2 °F10.4 °F31 %30.07 in10.0 miENE (60°)4.6 mphClear
5:15 AM39.2 °F10.4 °F31 %30.08 in10.0 miNE (40°)4.6 mphClear
5:35 AM41.0 °F8.6 °F26 %30.08 in10.0 miENE (60°)4.6 mphClear
5:55 AM39.2 °F10.4 °F31 %30.08 in10.0 miEast (80°)4.6 mphClear
6:15 AM39.2 °F10.4 °F31 %30.09 in10.0 miENE (70°)6.9 mphClear
6:35 AM39.2 °F10.4 °F31 %30.10 in10.0 miEast (100°)5.8 mphClear
6:55 AM37.4 °F10.4 °F33 %30.10 in10.0 miESE (110°)5.8 mphClear
7:15 AM35.6 °F14.0 °F41 %30.10 in10.0 miEast (100°)6.9 mphClear
7:35 AM39.2 °F12.2 °F33 %30.11 in10.0 miEast (100°)4.6 mphClear
7:55 AM41.0 °F12.2 °F31 %30.12 in10.0 miEast (90°)3.5 mphClear
8:15 AM41.0 °F14.0 °F33 %30.13 in10.0 miCalmClear
8:35 AM42.8 °F12.2 °F29 %30.13 in10.0 miCalmClear
8:55 AM44.6 °F14.0 °F29 %30.14 in10.0 miCalmClear
9:15 AM44.6 °F10.4 °F25 %30.14 in10.0 miCalmClear
9:35 AM46.4 °F14.0 °F27 %30.15 in10.0 miNorth (350°)3.5 mphClear
9:55 AM46.4 °F10.4 °F23 %30.16 in10.0 miCalmClear
10:15 AM48.2 °F15.8 °F27 %30.17 in10.0 miSW (230°)3.5 mphClear
10:35 AM48.2 °F19.4 °F32 %30.17 in10.0 miWSW (250°)5.8 mphClear
10:55 AM48.2 °F17.6 °F30 %30.17 in10.0 miWNW (290°)5.8 mphClear
11:15 AM48.2 °F17.6 °F30 %30.17 in10.0 miWNW (290°)5.8 mphClear
11:35 AM50.0 °F23.0 °F35 %30.16 in10.0 miWest (260°)5.8 mphClear
11:55 AM50.0 °F23.0 °F35 %30.16 in10.0 miWest (270°)9.2 mphClear
12:15 PM48.2 °F24.8 °F40 %30.15 in10.0 miWest (270°)5.8 mphClear
12:35 PM48.2 °F23.0 °F37 %30.15 in10.0 miWNW (290°)9.2 mphClear
12:55 PM50.0 °F21.2 °F32 %30.14 in10.0 miWNW (290°)9.2 mphClear
1:15 PM50.0 °F23.0 °F35 %30.14 in10.0 miWNW (290°)6.9 mphClear
1:35 PM50.0 °F23.0 °F35 %30.14 in10.0 miWest (280°)9.2 mphClear
1:55 PM50.0 °F24.8 °F37 %30.14 in10.0 miWNW (300°)6.9 mphClear
2:55 PM50.0 °F24.8 °F37 %30.14 in10.0 miWNW (300°)4.6 mphClear
3:15 PM50.0 °F26.6 °F40 %30.15 in10.0 miWNW (290°)8.1 mphClear
3:35 PM50.0 °F30.2 °F47 %30.15 in10.0 miWest (270°)9.2 mphClear
3:55 PM50.0 °F32.0 °F50 %30.15 in10.0 miWSW (240°)5.8 mphClear
4:15 PM50.0 °F28.4 °F43 %30.16 in10.0 miWNW (290°)8.1 mphClear
4:35 PM48.2 °F26.6 °F43 %30.16 in10.0 miWNW (290°)4.6 mphClear
4:55 PM48.2 °F26.6 °F43 %30.17 in10.0 miWNW (300°)3.5 mphClear
5:15 PM48.2 °F28.4 °F46 %30.17 in10.0 miCalmClear
5:35 PM46.4 °F32.0 °F57 %30.17 in10.0 miWSW (240°)3.5 mphClear
5:55 PM46.4 °F30.2 °F53 %30.17 in10.0 miWest (280°)3.5 mphClear
6:15 PM44.6 °F32.0 °F61 %30.18 in10.0 miSW (220°)3.5 mphClear
6:35 PM44.6 °F30.2 °F57 %30.19 in10.0 miCalmClear
6:55 PM42.8 °F28.4 °F57 %30.19 in10.0 miEast (100°)4.6 mphClear
7:15 PM44.6 °F28.4 °F53 %30.20 in10.0 miSE (130°)3.5 mphClear
7:35 PM42.8 °F28.4 °F57 %30.20 in10.0 miESE (120°)3.5 mphClear
7:55 PM42.8 °F30.2 °F61 %30.20 in10.0 miCalmClear
8:15 PM42.8 °F30.2 °F61 %30.20 in10.0 miCalmClear
8:35 PM44.6 °F30.2 °F57 %30.20 in10.0 miCalmClear
8:55 PM44.6 °F30.2 °F57 %30.20 in10.0 miCalmClear
9:15 PM44.6 °F30.2 °F57 %30.21 in10.0 miCalmClear
9:35 PM42.8 °F30.2 °F61 %30.21 in10.0 miWest (260°)3.5 mphClear
9:55 PM41.0 °F30.2 °F65 %30.21 in10.0 miCalmClear
10:15 PM41.0 °F28.4 °F61 %30.22 in10.0 miCalmClear
10:35 PM41.0 °F28.4 °F61 %30.21 in10.0 miCalmClear
10:55 PM41.0 °F30.2 °F65 %30.22 in10.0 miCalmClear
11:15 PM41.0 °F28.4 °F61 %30.22 in10.0 miCalmClear
11:35 PM41.0 °F28.4 °F61 %30.23 in10.0 miCalmClear
11:55 PM41.0 °F28.4 °F61 %30.23 in10.0 miCalmClear
Hourly data recorded from KPVF, located miles away from Placerville, California







STORIES FROM OUR PARTNERS